DECAYED

DMSP 5D-2 F6 DEB, 40919 (Decayed)

Orbit data source: Space-Track

DMSP 5D-2 F6 DEB, 40919 was space debris in SSO originally from a launch on Tue, 21 Dec 1982 UTC launched from the Air Force Western Test Range (AFWTR). Debris objects in space refer to the collection of defunct objects orbiting the Earth. Examples of debris include non-operational satellites, rocket bodies, and fragments generated from explosions, collisions, or faulty payload assembly.

Loading next visibility...
Identifier
40919, 1982-118M
Orbit
Decayed
Country
Flag of USUS
Related business
Manufacturer
Unknown
Mission
Decayed spacecraft
Bus & Motor
Unknown
Mass
Unknown
Launch date (UTC)
1982-12-21 (44 years ago)
Launch vehicle
Unknown
Launch site
Air Force Western Test Range (AFWTR)
Object type
Payload
Rocket body
Debris
Shape & HBR
Unknown shape, 0.1 m
Radar Cross Section
Medium (>0.1 m² and <1 m²)

Expand to show TLE details & history
Last TLE update: 7 months ago

TLE from 7 months ago
0 DMSP 5D-2 F6 DEB
1 40919U 82118M   25337.49662972  .02563849  00000-0  19024-1 0  9992
2 40919  98.3649 223.8923 0014366 102.5243 257.7624 15.69481441503947
Epoch: 2025-12-03T11:55Z
TLE epoch observation values (Epoch: 2025-12-03T11:55:08.807Z)
Latitude
-0.00003°
Longitude
-27.46098°
Altitude
365.574 km
Speed
7.689 km/s
True Right ascension
14h 55m 34s
True Declination
0° 00' 00"
Sunlit
Object was in daylight at epoch
Visualization orbit readout
Latitude
Unknown
Longitude
Unknown
Altitude
Unknown
Speed
Unknown
Apparent Right ascension
Unknown
Apparent Declination
Unknown
Sunlit
N/A
Visualization observer readout
Local Sidereal Time
21:36:32
Azimuth
Unknown
Elevation
Unknown
Doppler factor
Unknown
Orbital elements
Apogee altitude
367.002 km
Perigee altitude
347.649 km
Semi-major axis
6,735.463 km
Eccentricity
0.00144
Inclination
98.3649°
RAAN
223.8923°
Arg. of periapsis
102.5243°
True anomaly
257.60158°
Mean anomaly
257.7624°
Eccentric anomaly
257.68198°
Mean motion
3.92638 °/min
Orbital period
91.69 mins
BSTAR
0.019024
Loading maneuver chart data...
Computing Atmospheric mass density...
Loading historical data...
Loading historical data...
Loading historical data...
Loading historical data...
Loading historical data...
Loading historical data...
Loading historical data...

Documentation

Showing up to 5 results
|